User: anonymous   Login
Location: Epalinges
(46.5518°N, 6.6683°E)
Time: 03:57:36
(UTC+00:00)
Language:

SL-16 R/B - Orbit

View from above orbital plane
View from above orbital plane
View from above satellite
View from above satellite

Ground track
Ground track

The orbit data is extracted from the following two-line orbital elements,

1 27006U 01056F   21264.59757794 -.00000047  00000-0 -30097-5 0  9992
2 27006  99.5387  36.8832 0014102 224.8294 146.5726 13.70968592989813
Epoch (UTC): 21 September 2021 14:20:30
Eccentricity: 0.0014102
inclination: 99.5387°
perigee height: 985 km
apogee height: 1006 km
right ascension of ascending node: 36.8832°
argument of perigee: 224.8294°
revolutions per day: 13.70968592
mean anomaly at epoch: 146.5726°
orbit number at epoch: 98981

The dashed part of the orbit path shows where the satellite is in the earth's shadow,  

DLR